Regional Weather Roundup
Issued by NWS

Home | Current Version | Previous Version | Graphics & Text | Print | Product List | Glossary Off
Versions: 1 2 3 4 5 6 7 8 9 10 11 12 13 14 15 16 17 18 19 20 21 22 23 24 25 26 27 28 29 30 31 32 33 34 35 36 37 38 39 40 41 42 43 44 45 46 47 48 49 50

000
ASUS43 KDMX 261406
RWRIA

WEATHER ROUNDUP FOR IOWA
NATIONAL WEATHER SERVICE DES MOINES IA
900 AM CDT WED JUL 26 2017

NOTE: "FAIR" INDICATES FEW OR NO CLOUDS BELOW 12,000 FEET WITH NO
SIGNIFICANT WEATHER AND/OR OBSTRUCTIONS TO VISIBILITY.

* - THESE STATIONS ARE NOT NWS STATIONS...THUS NOT UNDER NWS
QUALITY CONTROL.  THEY ALSO DO NOT REPORT WEATHER SUCH
AS PRECIPITATION OR FOG.

IAZ001>003-012>014-020>022-031>034-043>046-261500-
   NORTHWEST IOWA

CITY           SKY/WX    TMP DP  RH WIND       PRES   REMARKS
CARROLL *      LGT RAIN  73  72  94 S9        30.00S
CHEROKEE *     HVY RAIN  72  72 100 N6        30.01R
DENISON *      CLOUDY    72  72 100 E8        29.99F
ORANGE CITY *  PTSUNNY   72  70  94 NE8       30.00S
SHELDON *      CLOUDY    72  70  94 NE7       30.00F
SIOUX CITY     CLOUDY    74  72  93 N8        29.99R
SPENCER        CLOUDY    72  69  90 NE8       30.02S
STORM LAKE *   LGT RAIN  72  70  94 NE6       30.01R
$$

IAZ055>058-069>071-079>083-090>094-261500-
   SOUTHWEST IOWA

CITY           SKY/WX    TMP DP  RH WIND       PRES   REMARKS
ATLANTIC *     LGT RAIN  72  70  94 E8        30.02S
AUDUBON *      LGT RAIN  70  66  88 SE3       30.02F
CLARINDA *     CLOUDY    73  73 100 W6        30.05R
COUNCIL BLFS * PTSUNNY   73  73 100 S10       30.00S
CRESTON *      CLOUDY    75  72  88 SW8       30.04S
HARLAN  *      PTSUNNY   73  73 100 S7        30.03R
LAMONI         CLOUDY    74  71  91 S6        30.03R
RED OAK *      LGT RAIN  73  73 100 S6        30.02S
SHENANDOAH *   LGT RAIN  73  73 100 SE3       30.03S
$$

IAZ047>049-059>061-072>074-084-261500-
   CENTRAL IOWA

CITY           SKY/WX    TMP DP  RH WIND       PRES   REMARKS
AMES           CLOUDY    73  72  96 S5        30.00R
ANKENY *       CLOUDY    75  70  83 CALM      30.01R
BOONE *        CLOUDY    75  70  83 SW7       30.01R
CHARITON *     CLOUDY    75  70  83 S7        30.01S
DES MOINES     CLOUDY    76  69  79 S9        30.00R
GRINNELL*      CLOUDY    74  70  87 S6        30.03S
KNOXVILLE *    CLOUDY    75  70  83 S8        29.99F
MARSHALLTOWN   CLOUDY    74  71  91 SE5       30.00S
NEWTON *       CLOUDY    73  72  94 S6        30.01S
PELLA *          N/A     76  70  80 S6        30.02S
PERRY *          N/A     73  72  96 SW7       30.02R
$$

IAZ004>006-015-016-023>025-035-036-261500-
   NORTH CENTRAL IOWA

CITY           SKY/WX    TMP DP  RH WIND       PRES   REMARKS
ALGONA *       LGT RAIN  72  72 100 E9G16     30.04R
ESTHERVILLE    CLOUDY    72  71  97 CALM      30.02R
FORT DODGE *   CLOUDY    73  70  88 CALM      30.02R
MASON CITY     CLOUDY    73  70  90 N12       30.05R
FOREST CITY *  RAIN      72  70  94 N14       30.04R
WEBSTER CITY * CLOUDY    72  70  94 S5        29.99R
IOWA FALLS *     N/A     73  70  88 SE5       30.02R
$$

IAZ007>011-017>019-026>030-037>042-050>054-066-261500-
   NORTHEAST IOWA

CITY           SKY/WX    TMP DP  RH WIND       PRES   REMARKS
CHARLES CITY * CLOUDY    73  72  94 CALM      30.02F
DECORAH *      CLOUDY    72  70  94 NE5       30.04S
DUBUQUE        CLOUDY    73  69  87 S12       30.05S
MONTICELLO *   CLOUDY    75  72  88 VRB5      30.03S
OELWEIN *      CLOUDY    73  73 100 S9        30.03F
WATERLOO       PTSUNNY   74  69  85 S7        30.00F
$$

IAZ064-065-067-068-078-261500-
   EAST CENTRAL IOWA

CITY           SKY/WX    TMP DP  RH WIND       PRES   REMARKS
DAVENPORT      PTSUNNY   76  69  79 S10       30.06F
IOWA CITY      CLOUDY    77  72  84 S7        30.04S
MT. PLEASANT * MOSUNNY   77  73  87 S7        30.03F
MUSCATINE *    CLOUDY    77  70  78 S9        30.04S
QUAD CITIES    MOSUNNY   77  69  76 SW9       30.04S
$$

IAZ062-063-075>077-085>089-095>099-261500-
   SOUTHEAST IOWA

CITY           SKY/WX    TMP DP  RH WIND       PRES   REMARKS
BURLINGTON     CLOUDY    77  72  84 S6        30.04F
FAIRFIELD *    CLOUDY    77  72  83 S7        30.03R
FORT MADISON * CLOUDY    75  72  88 S5        30.04F
KEOKUK *       CLOUDY    79  72  78 S5        30.03S HX  82
OSKALOOSA *      N/A     75  71  86 S7        30.02F
CENTERVILLE *    N/A     75  72  88 CALM      30.04S
OTTUMWA        CLOUDY    77  72  84 S6        30.02S
WASHINGTON *   PTSUNNY   79  73  83 S6G13     30.04F HX  82
$$

ABBREVIATIONS USED IN REMARKS
   TC - TEMPERATURES IN CELSIUS
  WCI - WIND CHILL INDEX
   HX - HEAT INDEX
  VSB - VISIBILITY
$$





USA.gov is the U.S. government's official web portal to all federal, state and local government web resources and services.